When you browse on this site, cookies collect data to enhance your experience and personalize the content and advertising you see.
Visit our Privacy Policy to learn more. By continuing to use the site, you agree to this use of cookies and data.
  • In Hungary
  • List of Countries
  • For 7 days
  • Water Temperature
  • Satellite Maps
  • Weather Map
  • News
  • Weather Widgets
  • user-avatar
    Login

    Hourly Weather Mount Vernon

    Today, 21 July, Sunday

    Time Temperature Precipitation Wind Pressure Humidity
    00:00 +33°C° 0.1 mm 3 mps 752 mmHg 55%
    01:00 +31°C° 0.1 mm 3 mps 752 mmHg 54%
    02:00 +31°C° 0 mm 3 mps 752 mmHg 58%
    03:00 +30°C° 0 mm 3 mps 752 mmHg 61%
    04:00 +30°C° 0 mm 3 mps 752 mmHg 64%
    05:00 +30°C° 0 mm 3 mps 752 mmHg 62%
    06:00 +31°C° 0 mm 3 mps 752 mmHg 59%
    07:00 +31°C° 0 mm 3 mps 753 mmHg 57%
    08:00 +33°C° 0 mm 3 mps 753 mmHg 53%
    09:00 +35°C° 0 mm 3 mps 753 mmHg 49%
    10:00 +36°C° 0 mm 3 mps 753 mmHg 45%
    11:00 +37°C° 0 mm 3 mps 753 mmHg 43%
    12:00 +38°C° 0 mm 3 mps 752 mmHg 41%
    13:00 +39°C° 0 mm 3 mps 752 mmHg 39%
    14:00 +40°C° 0.2 mm 4 mps 752 mmHg 40%
    15:00 +40°C° 0.2 mm 5 mps 752 mmHg 41%
    16:00 +40°C° 0.2 mm 5 mps 752 mmHg 43%
    17:00 +37°C° 0.4 mm 5 mps 752 mmHg 47%
    18:00 +36°C° 0.4 mm 4 mps 752 mmHg 51%
    19:00 +34°C° 0.4 mm 4 mps 752 mmHg 54%
    20:00 +33°C° 0 mm 3 mps 753 mmHg 58%
    21:00 +33°C° 0 mm 3 mps 753 mmHg 61%
    22:00 +31°C° 0 mm 3 mps 753 mmHg 65%
    23:00 +30°C° 0 mm 3 mps 753 mmHg 62%

    Tomorrow, 22 July, Monday

    Time Temperature Precipitation Wind Pressure Humidity
    00:00 +30°C° 0 mm 3 mps 753 mmHg 59%
    01:00 +29°C° 0 mm 2 mps 753 mmHg 56%
    02:00 +28°C° 0 mm 2 mps 753 mmHg 54%
    03:00 +28°C° 0 mm 2 mps 753 mmHg 52%
    04:00 +27°C° 0 mm 2 mps 753 mmHg 50%
    05:00 +27°C° 0 mm 2 mps 753 mmHg 49%
    06:00 +28°C° 0 mm 2 mps 754 mmHg 48%
    07:00 +28°C° 0 mm 2 mps 754 mmHg 47%
    08:00 +30°C° 0.1 mm 2 mps 754 mmHg 44%
    09:00 +31°C° 0.1 mm 2 mps 753 mmHg 41%
    10:00 +34°C° 0.1 mm 2 mps 753 mmHg 38%
    11:00 +34°C° 0.3 mm 2 mps 753 mmHg 39%
    12:00 +34°C° 0.3 mm 3 mps 753 mmHg 39%
    13:00 +34°C° 0.3 mm 3 mps 753 mmHg 39%
    14:00 +34°C° 0.7 mm 2 mps 752 mmHg 44%
    15:00 +32°C° 0.7 mm 2 mps 752 mmHg 49%
    16:00 +31°C° 0.7 mm 1 mps 752 mmHg 53%
    17:00 +30°C° 0.3 mm 1 mps 752 mmHg 57%
    18:00 +29°C° 0.3 mm 2 mps 751 mmHg 60%
    19:00 +28°C° 0.3 mm 2 mps 751 mmHg 64%
    20:00 +27°C° 1.3 mm 2 mps 751 mmHg 68%
    21:00 +27°C° 1.3 mm 1 mps 751 mmHg 72%
    22:00 +26°C° 1.3 mm 1 mps 751 mmHg 77%
    23:00 +26°C° 1.8 mm 1 mps 750 mmHg 79%

    Day after tomorrow, 23 July, Tuesday

    Time Temperature Precipitation Wind Pressure Humidity
    00:00 +26°C° 1.8 mm 2 mps 750 mmHg 80%
    01:00 +25°C° 1.8 mm 2 mps 750 mmHg 82%
    02:00 +25°C° 1.7 mm 2 mps 749 mmHg 83%
    03:00 +25°C° 1.7 mm 3 mps 749 mmHg 84%
    04:00 +25°C° 1.7 mm 3 mps 749 mmHg 85%
    05:00 +25°C° 6 mm 4 mps 749 mmHg 83%
    06:00 +23°C° 6 mm 4 mps 749 mmHg 81%
    07:00 +22°C° 6 mm 5 mps 750 mmHg 79%
    08:00 +23°C° 0 mm 5 mps 750 mmHg 73%
    09:00 +23°C° 0 mm 4 mps 751 mmHg 66%
    10:00 +23°C° 0 mm 4 mps 751 mmHg 60%
    11:00 +26°C° 0 mm 4 mps 751 mmHg 54%
    12:00 +27°C° 0 mm 4 mps 752 mmHg 49%
    13:00 +29°C° 0 mm 3 mps 752 mmHg 43%
    14:00 +29°C° 0 mm 3 mps 752 mmHg 41%
    15:00 +30°C° 0 mm 2 mps 752 mmHg 38%
    16:00 +30°C° 0 mm 2 mps 752 mmHg 36%
    17:00 +29°C° 0 mm 2 mps 753 mmHg 38%
    18:00 +29°C° 0 mm 2 mps 753 mmHg 41%
    19:00 +28°C° 0 mm 2 mps 753 mmHg 44%
    20:00 +27°C° 0 mm 2 mps 754 mmHg 46%
    21:00 +26°C° 0 mm 2 mps 754 mmHg 49%
    22:00 +26°C° 0 mm 2 mps 754 mmHg 52%
    23:00 +25°C° 0 mm 2 mps 754 mmHg 53%

    24 July, Wednesday

    Time Temperature Precipitation Wind Pressure Humidity
    00:00 +25°C° 0 mm 2 mps 754 mmHg 55%
    01:00 +24°C° 0 mm 3 mps 754 mmHg 56%
    02:00 +24°C° 0 mm 3 mps 755 mmHg 57%
    03:00 +22°C° 0 mm 3 mps 755 mmHg 59%
    04:00 +22°C° 0 mm 3 mps 755 mmHg 60%
    05:00 +22°C° 0 mm 3 mps 756 mmHg 59%
    06:00 +22°C° 0 mm 3 mps 756 mmHg 57%
    07:00 +22°C° 0 mm 4 mps 756 mmHg 55%
    08:00 +23°C° 0 mm 4 mps 757 mmHg 50%
    09:00 +25°C° 0 mm 4 mps 757 mmHg 45%
    10:00 +27°C° 0 mm 4 mps 757 mmHg 40%
    11:00 +28°C° 0 mm 4 mps 757 mmHg 37%
    12:00 +28°C° 0 mm 3 mps 757 mmHg 34%
    13:00 +29°C° 0 mm 3 mps 757 mmHg 31%
    14:00 +29°C° 0 mm 3 mps 757 mmHg 31%
    15:00 +29°C° 0 mm 3 mps 757 mmHg 31%
    16:00 +29°C° 0 mm 3 mps 757 mmHg 31%
    17:00 +28°C° 0 mm 3 mps 757 mmHg 34%
    18:00 +27°C° 0 mm 3 mps 757 mmHg 37%
    19:00 +27°C° 0 mm 3 mps 758 mmHg 40%
    20:00 +26°C° 0 mm 3 mps 758 mmHg 42%
    21:00 +25°C° 0 mm 3 mps 758 mmHg 44%
    22:00 +24°C° 0 mm 3 mps 759 mmHg 46%
    23:00 +24°C° 0 mm 3 mps 759 mmHg 48%

    25 July, Thursday

    Time Temperature Precipitation Wind Pressure Humidity
    00:00 +23°C° 0 mm 2 mps 759 mmHg 50%
    01:00 +23°C° 0 mm 2 mps 759 mmHg 52%
    02:00 +21°C° 0 mm 3 mps 759 mmHg 54%
    03:00 +21°C° 0 mm 3 mps 759 mmHg 56%
    04:00 +20°C° 0 mm 3 mps 760 mmHg 58%
    05:00 +20°C° 0 mm 3 mps 760 mmHg 56%
    06:00 +21°C° 0 mm 3 mps 760 mmHg 54%
    07:00 +21°C° 0 mm 3 mps 761 mmHg 53%
    08:00 +22°C° 0 mm 3 mps 761 mmHg 48%
    09:00 +25°C° 0 mm 3 mps 761 mmHg 43%
    10:00 +26°C° 0 mm 3 mps 761 mmHg 38%
    11:00 +27°C° 0 mm 2 mps 761 mmHg 34%
    12:00 +28°C° 0 mm 2 mps 760 mmHg 30%
    13:00 +30°C° 0 mm 2 mps 760 mmHg 27%
    14:00 +30°C° 0 mm 2 mps 760 mmHg 27%
    15:00 +30°C° 0 mm 2 mps 760 mmHg 28%
    16:00 +30°C° 0 mm 2 mps 760 mmHg 28%
    17:00 +29°C° 0 mm 2 mps 760 mmHg 32%
    18:00 +28°C° 0 mm 2 mps 761 mmHg 36%
    19:00 +27°C° 0 mm 2 mps 761 mmHg 40%
    20:00 +26°C° 0 mm 1 mps 761 mmHg 43%
    21:00 +25°C° 0 mm 1 mps 761 mmHg 46%
    22:00 +25°C° 0 mm 1 mps 762 mmHg 49%
    23:00 +24°C° 0 mm 1 mps 762 mmHg 51%

    26 July, Friday

    Time Temperature Precipitation Wind Pressure Humidity
    00:00 +24°C° 0 mm 1 mps 762 mmHg 52%
    01:00 +24°C° 0 mm 1 mps 762 mmHg 53%
    02:00 +23°C° 0 mm 1 mps 762 mmHg 53%
    03:00 +23°C° 0 mm 1 mps 762 mmHg 54%
    04:00 +23°C° 0 mm 1 mps 762 mmHg 54%
    05:00 +23°C° 0 mm 1 mps 762 mmHg 51%
    06:00 +24°C° 0 mm 1 mps 763 mmHg 49%
    07:00 +25°C° 0 mm 1 mps 763 mmHg 46%
    08:00 +26°C° 0 mm 1 mps 763 mmHg 43%
    09:00 +28°C° 0 mm 1 mps 763 mmHg 40%
    10:00 +30°C° 0 mm 1 mps 763 mmHg 37%
    11:00 +31°C° 0 mm 1 mps 763 mmHg 35%
    12:00 +32°C° 0 mm 1 mps 763 mmHg 32%
    13:00 +33°C° 0 mm 1 mps 763 mmHg 30%
    14:00 +32°C° 0 mm 2 mps 762 mmHg 31%
    15:00 +32°C° 0 mm 2 mps 762 mmHg 32%
    16:00 +31°C° 0 mm 3 mps 762 mmHg 33%
    17:00 +30°C° 0 mm 3 mps 762 mmHg 37%
    18:00 +29°C° 0 mm 3 mps 762 mmHg 41%
    19:00 +28°C° 0 mm 3 mps 762 mmHg 45%
    20:00 +27°C° 0 mm 3 mps 762 mmHg 48%
    21:00 +27°C° 0 mm 3 mps 763 mmHg 50%
    22:00 +26°C° 0 mm 2 mps 763 mmHg 52%
    23:00 +26°C° 0 mm 2 mps 763 mmHg 53%
    Show more